Time,TemperatureF,DewpointF,PressureIn,WindDirection,WindDirectionDegrees,WindSpeedMPH,WindSpeedGustMPH,Humidity,HourlyPrecipIn,Conditions,Clouds,dailyrainin,SoftwareType,DateUTC
2013-03-15 00:09:00,47.4,40.6,30.02,North,0,0.0,0.0,77,0.00,CLR,SKC,0.00,WeatherDisplay:10.37,2013-03-15 05:09:00,
2013-03-15 00:19:00,47.4,40.6,30.01,North,0,0.0,0.0,77,0.00,CLR,SKC,0.00,WeatherDisplay:10.37,2013-03-15 05:19:00,
2013-03-15 00:30:00,47.4,40.6,30.01,NNW,346,0.0,0.0,77,0.00,CLR,SKC,0.00,WeatherDisplay:10.37,2013-03-15 05:30:00,
2013-03-15 00:39:00,47.4,40.6,30.01,North,354,0.0,0.0,77,0.00,CLR,SKC,0.00,WeatherDisplay:10.37,2013-03-15 05:39:00,
2013-03-15 00:49:00,47.4,40.6,30.00,North,0,0.0,0.0,77,0.00,CLR,SKC,0.00,WeatherDisplay:10.37,2013-03-15 05:49:00,
2013-03-15 01:09:00,47.4,40.6,30.00,North,354,0.0,0.0,77,0.00,CLR,SKC,0.00,WeatherDisplay:10.37,2013-03-15 06:09:00,
2013-03-15 01:19:00,47.4,40.6,30.00,North,354,0.0,0.0,77,0.00,CLR,SKC,0.00,WeatherDisplay:10.37,2013-03-15 06:19:00,
2013-03-15 01:30:00,47.4,40.6,30.00,NNW,338,0.0,0.0,77,0.00,CLR,SKC,0.00,WeatherDisplay:10.37,2013-03-15 06:30:00,
2013-03-15 01:39:00,47.4,40.6,29.98,North,354,0.0,0.0,77,0.00,CLR,SKC,0.00,WeatherDisplay:10.37,2013-03-15 06:39:00,
2013-03-15 01:49:00,47.4,40.6,29.98,North,354,0.0,0.0,77,0.00,CLR,SKC,0.00,WeatherDisplay:10.37,2013-03-15 06:49:00,
2013-03-15 02:09:00,47.4,40.6,29.97,North,0,0.0,0.0,77,0.00,CLR,SKC,0.00,WeatherDisplay:10.37,2013-03-15 07:09:00,
2013-03-15 02:19:00,47.4,40.6,29.97,NNW,338,0.0,0.0,77,0.00,CLR,SKC,0.00,WeatherDisplay:10.37,2013-03-15 07:19:00,
2013-03-15 02:39:00,47.4,40.6,29.96,NNW,338,0.0,0.0,77,0.00,CLR,SKC,0.00,WeatherDisplay:10.37,2013-03-15 07:39:00,
2013-03-15 02:49:00,47.4,40.6,29.96,NNW,346,0.0,0.0,77,0.00,CLR,SKC,0.00,WeatherDisplay:10.37,2013-03-15 07:49:00,
2013-03-15 03:10:00,47.4,40.6,29.95,North,0,0.0,0.0,77,0.00,CLR,SKC,0.00,WeatherDisplay:10.37,2013-03-15 08:10:00,
2013-03-15 03:20:00,47.4,40.6,29.94,North,0,0.0,0.0,77,0.00,CLR,SKC,0.00,WeatherDisplay:10.37,2013-03-15 08:20:00,
2013-03-15 03:40:00,47.4,40.6,29.92,North,0,0.0,0.0,77,0.00,CLR,SKC,0.00,WeatherDisplay:10.37,2013-03-15 08:40:00,
2013-03-15 03:50:00,47.4,40.6,29.92,North,354,0.0,0.0,77,0.00,CLR,SKC,0.00,WeatherDisplay:10.37,2013-03-15 08:50:00,
2013-03-15 04:10:00,47.4,40.6,29.91,North,0,0.0,0.0,77,0.00,CLR,SKC,0.00,WeatherDisplay:10.37,2013-03-15 09:10:00,
2013-03-15 04:20:00,47.4,40.6,29.91,NNW,346,0.0,0.0,77,0.00,CLR,SKC,0.00,WeatherDisplay:10.37,2013-03-15 09:20:00,
2013-03-15 04:30:00,47.4,40.6,29.90,NNW,338,0.0,0.0,77,0.00,CLR,SKC,0.00,WeatherDisplay:10.37,2013-03-15 09:30:00,
2013-03-15 04:40:00,47.4,40.6,29.90,North,0,0.0,0.0,77,0.00,CLR,SKC,0.00,WeatherDisplay:10.37,2013-03-15 09:40:00,
2013-03-15 04:50:00,47.4,40.6,29.89,NNW,346,0.0,0.0,77,0.00,CLR,SKC,0.00,WeatherDisplay:10.37,2013-03-15 09:50:00,
2013-03-15 05:10:00,47.4,40.6,29.87,NNW,346,0.0,0.0,77,0.00,CLR,SKC,0.00,WeatherDisplay:10.37,2013-03-15 10:10:00,
2013-03-15 05:17:00,47.4,40.6,29.87,North,0,0.0,0.0,77,0.00,CLR,SKC,0.00,WeatherDisplay:10.37,2013-03-15 10:17:00,
2013-03-15 05:30:00,47.4,40.6,29.86,NNW,346,0.0,0.0,77,0.00,CLR,SKC,0.00,WeatherDisplay:10.37,2013-03-15 10:30:00,
2013-03-15 05:40:00,47.4,40.6,29.85,North,0,0.0,0.0,77,0.00,CLR,SKC,0.00,WeatherDisplay:10.37,2013-03-15 10:40:00,
2013-03-15 05:50:00,47.4,40.6,29.85,North,0,0.0,0.0,77,0.00,CLR,SKC,0.00,WeatherDisplay:10.37,2013-03-15 10:50:00,
2013-03-15 06:10:00,47.4,40.6,29.84,North,0,0.0,0.0,77,0.00,CLR,SKC,0.00,WeatherDisplay:10.37,2013-03-15 11:10:00,
2013-03-15 06:20:00,47.4,40.6,29.84,North,354,0.0,0.0,77,0.00,CLR,SKC,0.00,WeatherDisplay:10.37,2013-03-15 11:20:00,
2013-03-15 06:30:00,47.4,40.6,29.84,North,354,0.0,0.0,77,0.00,CLR,SKC,0.00,WeatherDisplay:10.37,2013-03-15 11:30:00,
2013-03-15 06:40:00,47.4,40.6,29.83,North,0,0.0,0.0,77,0.00,CLR,SKC,0.00,WeatherDisplay:10.37,2013-03-15 11:40:00,
2013-03-15 06:50:00,47.4,40.6,29.82,North,0,0.0,0.0,77,0.00,CLR,SKC,0.00,WeatherDisplay:10.37,2013-03-15 11:50:00,
2013-03-15 07:10:00,47.4,40.6,29.81,NNW,346,0.0,0.0,77,0.00,CLR,SKC,0.00,WeatherDisplay:10.37,2013-03-15 12:10:00,
2013-03-15 07:20:00,47.4,40.6,29.81,North,0,0.0,0.0,77,0.00,CLR,SKC,0.00,WeatherDisplay:10.37,2013-03-15 12:20:00,
2013-03-15 07:30:00,47.4,40.6,29.81,North,354,0.0,0.0,77,0.00,CLR,SKC,0.00,WeatherDisplay:10.37,2013-03-15 12:30:00,
2013-03-15 07:40:00,47.4,40.6,29.81,North,354,0.0,0.0,77,0.00,CLR,SKC,0.00,WeatherDisplay:10.37,2013-03-15 12:40:00,
2013-03-15 07:50:00,47.4,40.6,29.80,North,0,0.0,0.0,77,0.00,CLR,SKC,0.00,WeatherDisplay:10.37,2013-03-15 12:50:00,
2013-03-15 08:10:00,47.4,40.6,29.79,North,0,0.0,0.0,77,0.00,CLR,SKC,0.00,WeatherDisplay:10.37,2013-03-15 13:10:00,
2013-03-15 08:20:00,47.4,40.6,29.79,WNW,299,0.0,0.0,77,0.00,CLR,SKC,0.00,WeatherDisplay:10.37,2013-03-15 13:20:00,
2013-03-15 08:40:00,47.4,40.6,29.79,North,0,0.0,0.0,77,0.00,CLR,SKC,0.00,WeatherDisplay:10.37,2013-03-15 13:40:00,
2013-03-15 08:50:00,47.4,40.6,29.79,North,354,0.0,0.0,77,0.00,CLR,SKC,0.00,WeatherDisplay:10.37,2013-03-15 13:50:00,
2013-03-15 09:10:00,47.4,40.6,29.78,North,0,0.0,0.0,77,0.00,CLR,SKC,0.00,WeatherDisplay:10.37,2013-03-15 14:10:00,
2013-03-15 09:20:00,47.4,40.6,29.77,North,0,0.0,0.0,77,0.00,CLR,SKC,0.00,WeatherDisplay:10.37,2013-03-15 14:20:00,
2013-03-15 09:40:00,47.4,40.6,29.76,North,0,0.0,0.0,77,0.00,CLR,SKC,0.00,WeatherDisplay:10.37,2013-03-15 14:40:00,
2013-03-15 09:50:00,47.4,40.6,29.74,NNW,329,0.0,0.0,77,0.00,CLR,SKC,0.00,WeatherDisplay:10.37,2013-03-15 14:50:00,
2013-03-15 10:10:00,47.4,40.6,29.74,North,0,0.0,0.0,77,0.00,CLR,SKC,0.00,WeatherDisplay:10.37,2013-03-15 15:10:00,
2013-03-15 10:20:00,47.4,40.6,29.74,NNW,329,0.0,0.0,77,0.00,CLR,SKC,0.00,WeatherDisplay:10.37,2013-03-15 15:20:00,
2013-03-15 10:40:00,47.4,40.6,29.73,North,354,0.0,0.0,77,0.00,CLR,SKC,0.00,WeatherDisplay:10.37,2013-03-15 15:40:00,
2013-03-15 10:50:00,47.4,40.6,29.73,NNW,346,0.0,0.0,77,0.00,CLR,SKC,0.00,WeatherDisplay:10.37,2013-03-15 15:50:00,
2013-03-15 11:10:00,47.4,40.6,29.71,NNW,329,0.0,0.0,77,0.00,CLR,SKC,0.00,WeatherDisplay:10.37,2013-03-15 16:10:00,
2013-03-15 11:20:00,47.4,40.6,29.71,NNW,338,0.0,0.0,77,0.00,CLR,SKC,0.00,WeatherDisplay:10.37,2013-03-15 16:20:00,
2013-03-15 11:40:00,47.4,40.6,29.72,NNW,346,0.0,0.0,77,0.00,CLR,SKC,0.00,WeatherDisplay:10.37,2013-03-15 16:40:00,
2013-03-15 11:50:00,47.4,40.6,29.71,NNW,338,0.0,0.0,77,0.00,CLR,SKC,0.00,WeatherDisplay:10.37,2013-03-15 16:50:00,
2013-03-15 12:10:00,47.4,40.6,29.72,NNW,338,0.0,0.0,77,0.00,CLR,SKC,0.00,WeatherDisplay:10.37,2013-03-15 17:10:00,
2013-03-15 12:20:00,47.4,40.6,29.72,NNW,338,0.0,0.0,77,0.00,CLR,SKC,0.00,WeatherDisplay:10.37,2013-03-15 17:20:00,
2013-03-15 12:40:00,47.4,40.6,29.71,NNW,329,0.0,0.0,77,0.00,CLR,SKC,0.00,WeatherDisplay:10.37,2013-03-15 17:40:00,
2013-03-15 12:50:00,47.4,40.6,29.71,NNW,338,0.0,0.0,77,0.00,CLR,SKC,0.00,WeatherDisplay:10.37,2013-03-15 17:50:00,
2013-03-15 13:10:00,47.4,40.6,29.70,NNW,346,0.0,0.0,77,0.00,CLR,SKC,0.00,WeatherDisplay:10.37,2013-03-15 18:10:00,
2013-03-15 13:20:00,47.4,40.6,29.70,NNW,329,0.0,0.0,77,0.00,CLR,SKC,0.00,WeatherDisplay:10.37,2013-03-15 18:20:00,
2013-03-15 13:30:00,47.4,40.6,29.70,NNW,338,0.0,0.0,77,0.00,CLR,SKC,0.00,WeatherDisplay:10.37,2013-03-15 18:30:00,
2013-03-15 13:40:00,47.4,40.6,29.70,NNW,346,0.0,0.0,77,0.00,CLR,SKC,0.00,WeatherDisplay:10.37,2013-03-15 18:40:00,
2013-03-15 13:50:00,47.4,40.6,29.69,NW,318,0.0,0.0,77,0.00,CLR,SKC,0.00,WeatherDisplay:10.37,2013-03-15 18:50:00,
2013-03-15 14:10:00,47.4,40.6,29.68,NNW,329,0.0,0.0,77,0.00,CLR,SKC,0.00,WeatherDisplay:10.37,2013-03-15 19:10:00,
2013-03-15 14:20:00,47.4,40.6,29.68,NNW,329,0.0,0.0,77,0.00,CLR,SKC,0.00,WeatherDisplay:10.37,2013-03-15 19:20:00,
2013-03-15 14:40:00,47.4,40.6,29.67,NW,308,0.0,0.0,77,0.00,CLR,SKC,0.00,WeatherDisplay:10.37,2013-03-15 19:40:00,
2013-03-15 14:50:00,47.4,40.6,29.68,NNW,338,0.0,0.0,77,0.00,CLR,SKC,0.00,WeatherDisplay:10.37,2013-03-15 19:50:00,
2013-03-15 15:10:00,47.4,40.6,29.66,NNW,346,0.0,0.0,77,0.00,CLR,SKC,0.00,WeatherDisplay:10.37,2013-03-15 20:10:00,
2013-03-15 15:20:00,47.4,40.6,29.66,NNW,338,0.0,0.0,77,0.00,CLR,SKC,0.00,WeatherDisplay:10.37,2013-03-15 20:20:00,
2013-03-15 15:40:00,47.4,40.6,29.65,NNW,346,0.0,0.0,77,0.00,CLR,SKC,0.00,WeatherDisplay:10.37,2013-03-15 20:40:00,
2013-03-15 15:50:00,47.4,40.6,29.65,NNW,338,0.0,0.0,77,0.00,CLR,SKC,0.00,WeatherDisplay:10.37,2013-03-15 20:50:00,
2013-03-15 16:10:00,47.4,40.6,29.64,North,354,0.0,0.0,77,0.00,CLR,SKC,0.00,WeatherDisplay:10.37,2013-03-15 21:10:00,
2013-03-15 16:20:00,47.4,40.6,29.64,NNW,338,0.0,0.0,77,0.00,CLR,SKC,0.00,WeatherDisplay:10.37,2013-03-15 21:20:00,
2013-03-15 16:40:00,47.4,40.6,29.65,NNW,338,0.0,0.0,77,0.00,CLR,SKC,0.00,WeatherDisplay:10.37,2013-03-15 21:40:00,
2013-03-15 16:50:00,47.4,40.6,29.64,NNW,338,0.0,0.0,77,0.00,CLR,SKC,0.00,WeatherDisplay:10.37,2013-03-15 21:50:00,
2013-03-15 17:10:00,47.4,40.6,29.65,NW,318,0.0,0.0,77,0.00,CLR,SKC,0.00,WeatherDisplay:10.37,2013-03-15 22:10:00,
2013-03-15 17:20:00,47.4,40.6,29.66,NNW,346,0.0,0.0,77,0.00,CLR,SKC,0.00,WeatherDisplay:10.37,2013-03-15 22:20:00,
2013-03-15 17:40:00,47.4,40.6,29.65,NNW,338,0.0,0.0,77,0.00,CLR,SKC,0.00,WeatherDisplay:10.37,2013-03-15 22:40:00,
2013-03-15 17:50:00,47.4,40.6,29.65,NNW,346,0.0,0.0,77,0.00,CLR,SKC,0.00,WeatherDisplay:10.37,2013-03-15 22:50:00,
2013-03-15 18:10:00,47.4,40.6,29.64,NNW,346,0.0,0.0,77,0.00,CLR,SKC,0.00,WeatherDisplay:10.37,2013-03-15 23:10:00,
2013-03-15 18:20:00,47.4,40.6,29.64,North,354,0.0,0.0,77,0.00,CLR,SKC,0.00,WeatherDisplay:10.37,2013-03-15 23:20:00,
2013-03-15 18:40:00,47.4,40.6,29.63,North,354,0.0,0.0,77,0.00,CLR,SKC,0.00,WeatherDisplay:10.37,2013-03-15 23:40:00,
2013-03-15 18:50:00,47.4,40.6,29.63,NNW,338,0.0,0.0,77,0.00,CLR,SKC,0.00,WeatherDisplay:10.37,2013-03-15 23:50:00,
2013-03-15 19:10:00,47.4,40.6,29.64,North,354,0.0,0.0,77,0.00,CLR,SKC,0.00,WeatherDisplay:10.37,2013-03-16 00:10:00,
2013-03-15 19:20:00,47.4,40.6,29.64,North,0,0.0,0.0,77,0.00,CLR,SKC,0.00,WeatherDisplay:10.37,2013-03-16 00:20:00,
2013-03-15 19:40:00,47.4,40.6,29.66,North,354,0.0,0.0,77,0.00,CLR,SKC,0.00,WeatherDisplay:10.37,2013-03-16 00:40:00,
2013-03-15 19:50:00,47.4,40.6,29.66,NNW,346,0.0,0.0,77,0.00,CLR,SKC,0.00,WeatherDisplay:10.37,2013-03-16 00:50:00,
2013-03-15 20:10:00,47.4,40.6,29.66,NNW,338,0.0,0.0,77,0.00,CLR,SKC,0.00,WeatherDisplay:10.37,2013-03-16 01:10:00,
2013-03-15 20:20:00,47.4,40.6,29.67,NNW,346,0.0,0.0,77,0.00,CLR,SKC,0.00,WeatherDisplay:10.37,2013-03-16 01:20:00,
2013-03-15 20:30:00,47.4,40.6,29.67,NNW,338,0.0,0.0,77,0.00,CLR,SKC,0.00,WeatherDisplay:10.37,2013-03-16 01:30:00,
2013-03-15 20:40:00,47.4,40.6,29.68,North,354,0.0,0.0,77,0.00,CLR,SKC,0.00,WeatherDisplay:10.37,2013-03-16 01:40:00,
2013-03-15 20:50:00,47.4,40.6,29.68,NNW,329,0.0,0.0,77,0.00,CLR,SKC,0.00,WeatherDisplay:10.37,2013-03-16 01:50:00,
2013-03-15 21:10:00,47.4,40.6,29.70,North,0,0.0,0.0,77,0.00,CLR,SKC,0.00,WeatherDisplay:10.37,2013-03-16 02:10:00,
2013-03-15 21:20:00,47.4,40.6,29.71,North,0,0.0,0.0,77,0.00,CLR,SKC,0.00,WeatherDisplay:10.37,2013-03-16 02:20:00,
2013-03-15 21:30:00,47.4,40.6,29.71,North,354,0.0,0.0,77,0.00,CLR,SKC,0.00,WeatherDisplay:10.37,2013-03-16 02:30:00,
2013-03-15 21:40:00,47.4,40.6,29.71,North,0,0.0,0.0,77,0.00,CLR,SKC,0.00,WeatherDisplay:10.37,2013-03-16 02:40:00,
2013-03-15 21:50:00,47.4,40.6,29.71,NNW,346,0.0,0.0,77,0.00,CLR,SKC,0.00,WeatherDisplay:10.37,2013-03-16 02:50:00,
2013-03-15 22:10:00,47.4,40.6,29.72,North,0,0.0,0.0,77,0.00,CLR,SKC,0.00,WeatherDisplay:10.37,2013-03-16 03:10:00,
2013-03-15 22:20:00,47.4,40.6,29.73,North,0,0.0,0.0,77,0.00,CLR,SKC,0.00,WeatherDisplay:10.37,2013-03-16 03:20:00,
2013-03-15 22:30:00,47.4,40.6,29.74,NNW,346,0.0,0.0,77,0.00,CLR,SKC,0.00,WeatherDisplay:10.37,2013-03-16 03:30:00,
2013-03-15 22:40:00,47.4,40.6,29.74,North,0,0.0,0.0,77,0.00,CLR,SKC,0.00,WeatherDisplay:10.37,2013-03-16 03:40:00,
2013-03-15 22:50:00,47.4,40.6,29.75,North,0,0.0,0.0,77,0.00,CLR,SKC,0.00,WeatherDisplay:10.37,2013-03-16 03:50:00,
2013-03-15 23:10:00,47.4,40.6,29.76,North,0,0.0,0.0,77,0.00,CLR,SKC,0.00,WeatherDisplay:10.37,2013-03-16 04:10:00,
2013-03-15 23:20:00,47.4,40.6,29.76,North,0,0.0,0.0,77,0.00,CLR,SKC,0.00,WeatherDisplay:10.37,2013-03-16 04:20:00,
2013-03-15 23:40:00,47.4,40.6,29.77,North,0,0.0,0.0,77,0.00,CLR,SKC,0.00,WeatherDisplay:10.37,2013-03-16 04:40:00,
2013-03-15 23:50:00,47.4,40.6,29.77,North,0,0.0,0.0,77,0.00,CLR,SKC,0.00,WeatherDisplay:10.37,2013-03-16 04:50:00,